| time (UTC) | temp F | wind direction | speed MPH | gust MPH | rain 1hr in | rain 24hr in | rain mn in | humidity % | barometer mb |
| 20260510225101 | 61 | 62 | 0.0 | 1.0 | 0.00 | 0.00 | 0.00 | 53 | 1015.2 |
| 20260510224558 | 62 | 55 | 0.0 | 1.0 | 0.00 | 0.00 | 0.00 | 50 | 1015.2 |
| 20260510224055 | 63 | 76 | 0.0 | 0.0 | 0.00 | 0.00 | 0.00 | 49 | 1015.2 |
| 20260510223552 | 63 | 158 | 1.0 | 2.0 | 0.00 | 0.00 | 0.00 | 50 | 1015.2 |
| 20260510223049 | 65 | 68 | 0.0 | 1.0 | 0.00 | 0.00 | 0.00 | 50 | 1015.2 |
| 20260510222546 | 66 | 78 | 0.0 | 0.0 | 0.00 | 0.00 | 0.00 | 50 | 1015.2 |
| 20260510222043 | 65 | 70 | 1.0 | 1.0 | 0.00 | 0.00 | 0.00 | 47 | 1015.2 |
| 20260510221538 | 66 | 80 | 1.0 | 1.0 | 0.00 | 0.00 | 0.00 | 48 | 1015.2 |
| 20260510221035 | 67 | 243 | 2.0 | 2.0 | 0.00 | 0.00 | 0.00 | 45 | 1015.2 |
| 20260510220531 | 66 | 31 | 1.0 | 1.0 | 0.00 | 0.00 | 0.00 | 47 | 1015.2 |
| 20260510220027 | 65 | 70 | 0.0 | 0.0 | 0.00 | 0.00 | 0.00 | 46 | 1015.2 |
| 20260510215525 | 67 | 37 | 1.0 | 1.0 | 0.00 | 0.00 | 0.00 | 46 | 1015.2 |
| 20260510215023 | 69 | 60 | 0.0 | 1.0 | 0.00 | 0.00 | 0.00 | 46 | 1014.9 |
| 20260510214519 | 67 | 79 | 0.0 | 0.0 | 0.00 | 0.00 | 0.00 | 48 | 1014.6 |
| 20260510214016 | 67 | 114 | 0.0 | 0.0 | 0.00 | 0.00 | 0.00 | 47 | 1014.6 |
| 20260510213513 | 67 | 69 | 1.0 | 1.0 | 0.00 | 0.00 | 0.00 | 45 | 1014.6 |
| 20260510213009 | 65 | 99 | 0.0 | 1.0 | 0.00 | 0.00 | 0.00 | 51 | 1014.6 |
| 20260510212506 | 63 | 65 | 0.0 | 0.0 | 0.00 | 0.00 | 0.00 | 52 | 1014.6 |
| 20260510212004 | 63 | 61 | 0.0 | 1.0 | 0.00 | 0.00 | 0.00 | 49 | 1014.1 |
| 20260510211501 | 63 | 66 | 0.0 | 0.0 | 0.00 | 0.00 | 0.00 | 51 | 1013.8 |
| 20260510211001 | 64 | 75 | 0.0 | 0.0 | 0.00 | 0.00 | 0.00 | 49 | 1014.6 |
| 20260510210456 | 65 | 66 | 0.0 | 1.0 | 0.00 | 0.00 | 0.00 | 47 | 1014.6 |
| 20260510205955 | 64 | 59 | 1.0 | 1.0 | 0.00 | 0.00 | 0.00 | 46 | 1014.1 |
| 20260510205450 | 63 | 72 | 1.0 | 1.0 | 0.00 | 0.00 | 0.00 | 48 | 1014.6 |
| 20260510204946 | 63 | 119 | 1.0 | 2.0 | 0.00 | 0.00 | 0.00 | 50 | 1014.1 |
| 20260510204443 | 64 | 55 | 1.0 | 1.0 | 0.00 | 0.00 | 0.00 | 49 | 1014.1 |
| 20260510203939 | 63 | 15 | 1.0 | 2.0 | 0.00 | 0.00 | 0.00 | 51 | 1014.1 |
| 20260510203438 | 65 | 195 | 1.0 | 2.0 | 0.00 | 0.00 | 0.00 | 47 | 1014.6 |
| 20260510202938 | 66 | 38 | 1.0 | 1.0 | 0.00 | 0.00 | 0.00 | 46 | 1014.1 |
| 20260510202433 | 67 | 84 | 0.0 | 1.0 | 0.00 | 0.00 | 0.00 | 47 | 1014.1 |
| 20260510201930 | 67 | 93 | 1.0 | 1.0 | 0.00 | 0.00 | 0.00 | 45 | 1014.6 |
| 20260510201428 | 68 | 83 | 1.0 | 1.0 | 0.00 | 0.00 | 0.00 | 47 | 1014.6 |
| 20260510200924 | 66 | 76 | 1.0 | 2.0 | 0.00 | 0.00 | 0.00 | 46 | 1014.6 |
| 20260510200425 | 65 | 183 | 0.0 | 1.0 | 0.00 | 0.00 | 0.00 | 48 | 1014.6 |
| 20260510195918 | 66 | 121 | 0.0 | 1.0 | 0.00 | 0.00 | 0.00 | 46 | 1014.6 |
| 20260510195415 | 68 | 140 | 1.0 | 1.0 | 0.00 | 0.00 | 0.00 | 46 | 1014.6 |
| 20260510194910 | 69 | 69 | 0.0 | 1.0 | 0.00 | 0.00 | 0.00 | 45 | 1014.9 |
| 20260510194407 | 68 | 73 | 1.0 | 2.0 | 0.00 | 0.00 | 0.00 | 45 | 1014.6 |
| 20260510193903 | 68 | 94 | 2.0 | 3.0 | 0.00 | 0.00 | 0.00 | 46 | 1014.6 |
| 20260510193358 | 68 | 99 | 1.0 | 1.0 | 0.00 | 0.00 | 0.00 | 43 | 1014.6 |
| 20260510192853 | 69 | 165 | 3.0 | 3.0 | 0.00 | 0.00 | 0.00 | 44 | 1014.6 |
| 20260510192349 | 67 | 65 | 1.0 | 1.0 | 0.00 | 0.00 | 0.00 | 46 | 1014.9 |
| 20260510191845 | 65 | 63 | 1.0 | 1.0 | 0.00 | 0.00 | 0.00 | 47 | 1014.6 |
| 20260510191341 | 67 | 60 | 0.0 | 1.0 | 0.00 | 0.00 | 0.00 | 47 | 1014.9 |
| 20260510190839 | 65 | 71 | 1.0 | 1.0 | 0.00 | 0.00 | 0.00 | 48 | 1014.9 |
| 20260510190336 | 66 | 65 | 1.0 | 1.0 | 0.00 | 0.00 | 0.00 | 46 | 1014.9 |
| 20260510185832 | 66 | 51 | 0.0 | 1.0 | 0.00 | 0.00 | 0.00 | 46 | 1014.6 |
| 20260510185330 | 67 | 67 | 1.0 | 3.0 | 0.00 | 0.00 | 0.00 | 46 | 1014.6 |
| 20260510184827 | 67 | 13 | 1.0 | 1.0 | 0.00 | 0.00 | 0.00 | 47 | 1014.6 |
| 20260510184324 | 67 | 61 | 1.0 | 2.0 | 0.00 | 0.00 | 0.00 | 46 | 1014.6 |
| 20260510183818 | 68 | 87 | 1.0 | 2.0 | 0.00 | 0.00 | 0.00 | 44 | 1014.6 |
| 20260510183314 | 67 | 87 | 0.0 | 0.0 | 0.00 | 0.00 | 0.00 | 47 | 1014.6 |
| 20260510182810 | 68 | 63 | 1.0 | 1.0 | 0.00 | 0.00 | 0.00 | 47 | 1014.6 |
| 20260510182307 | 66 | 277 | 1.0 | 2.0 | 0.00 | 0.00 | 0.00 | 48 | 1014.6 |
| 20260510181803 | 67 | 171 | 2.0 | 5.0 | 0.00 | 0.00 | 0.00 | 47 | 1014.6 |
| 20260510181300 | 68 | 303 | 2.0 | 3.0 | 0.00 | 0.00 | 0.00 | 44 | 1014.6 |
| 20260510180756 | 68 | 73 | 0.0 | 1.0 | 0.00 | 0.00 | 0.00 | 50 | 1014.6 |
| 20260510180254 | 66 | 75 | 1.0 | 1.0 | 0.00 | 0.00 | 0.00 | 47 | 1014.6 |
| 20260510175750 | 66 | 359 | 1.0 | 2.0 | 0.00 | 0.00 | 0.00 | 45 | 1014.6 |
| 20260510175246 | 66 | 284 | 3.0 | 3.0 | 0.00 | 0.00 | 0.00 | 49 | 1014.6 |
| 20260510174743 | 66 | 67 | 1.0 | 1.0 | 0.00 | 0.00 | 0.00 | 48 | 1014.1 |
| 20260510174240 | 67 | 166 | 1.0 | 3.0 | 0.00 | 0.00 | 0.00 | 46 | 1014.1 |
| 20260510173736 | 66 | 140 | 2.0 | 5.0 | 0.00 | 0.00 | 0.00 | 50 | 1013.8 |
| 20260510173232 | 64 | 80 | 1.0 | 2.0 | 0.00 | 0.00 | 0.00 | 50 | 1013.8 |
| 20260510172728 | 65 | 30 | 2.0 | 2.0 | 0.00 | 0.00 | 0.00 | 51 | 1013.8 |
| 20260510172224 | 66 | 90 | 0.0 | 1.0 | 0.00 | 0.00 | 0.00 | 49 | 1014.1 |
| 20260510171721 | 66 | 136 | 2.0 | 5.0 | 0.00 | 0.00 | 0.00 | 46 | 1014.1 |
| 20260510171218 | 67 | 165 | 2.0 | 2.0 | 0.00 | 0.00 | 0.00 | 44 | 1014.1 |
| 20260510170715 | 66 | 95 | 1.0 | 2.0 | 0.00 | 0.00 | 0.00 | 46 | 1014.1 |
| 20260510170211 | 66 | 207 | 1.0 | 1.0 | 0.00 | 0.00 | 0.00 | 52 | 1013.8 |
| 20260510165707 | 64 | 49 | 1.0 | 1.0 | 0.00 | 0.00 | 0.00 | 47 | 1014.1 |
| 20260510165203 | 66 | 62 | 1.0 | 1.0 | 0.00 | 0.00 | 0.00 | 49 | 1014.1 |
| 20260510164701 | 66 | 60 | 0.0 | 0.0 | 0.00 | 0.00 | 0.00 | 50 | 1014.1 |
| 20260510164158 | 64 | 63 | 2.0 | 3.0 | 0.00 | 0.00 | 0.00 | 47 | 1014.6 |
| 20260510163653 | 63 | 340 | 1.0 | 1.0 | 0.00 | 0.00 | 0.00 | 48 | 1014.1 |
| 20260510163149 | 64 | 189 | 1.0 | 1.0 | 0.00 | 0.00 | 0.00 | 48 | 1014.6 |
| 20260510162643 | 66 | 146 | 1.0 | 1.0 | 0.00 | 0.00 | 0.00 | 49 | 1014.1 |
| 20260510162141 | 64 | 197 | 1.0 | 1.0 | 0.00 | 0.00 | 0.00 | 50 | 1014.1 |
| 20260510161636 | 64 | 31 | 1.0 | 1.0 | 0.00 | 0.00 | 0.00 | 52 | 1014.1 |
| 20260510161133 | 63 | 173 | 1.0 | 1.0 | 0.00 | 0.00 | 0.00 | 50 | 1014.6 |
| 20260510160630 | 64 | 354 | 3.0 | 3.0 | 0.00 | 0.00 | 0.00 | 49 | 1013.8 |
| 20260510160130 | 64 | 179 | 1.0 | 1.0 | 0.00 | 0.00 | 0.00 | 50 | 1014.1 |
| 20260510155627 | 63 | 47 | 1.0 | 1.0 | 0.00 | 0.00 | 0.00 | 51 | 1013.8 |
| 20260510155123 | 64 | 160 | 2.0 | 2.0 | 0.00 | 0.00 | 0.00 | 51 | 1014.1 |
| 20260510154618 | 64 | 82 | 1.0 | 2.0 | 0.00 | 0.00 | 0.00 | 51 | 1013.8 |
| 20260510154114 | 63 | 87 | 0.0 | 1.0 | 0.00 | 0.00 | 0.00 | 56 | 1013.8 |
| 20260510153610 | 62 | 80 | 0.0 | 0.0 | 0.00 | 0.00 | 0.00 | 57 | 1013.8 |
| 20260510153106 | 61 | 32 | 1.0 | 1.0 | 0.00 | 0.00 | 0.00 | 57 | 1013.8 |
| 20260510152603 | 61 | 119 | 2.0 | 2.0 | 0.00 | 0.00 | 0.00 | 56 | 1013.8 |
| 20260510152059 | 61 | 66 | 2.0 | 2.0 | 0.00 | 0.00 | 0.00 | 56 | 1013.4 |
| 20260510151556 | 61 | 189 | 2.0 | 2.0 | 0.00 | 0.00 | 0.00 | 56 | 1013.4 |
| 20260510151054 | 61 | 344 | 1.0 | 2.0 | 0.00 | 0.00 | 0.00 | 58 | 1013.4 |
| 20260510150553 | 60 | 92 | 0.0 | 0.0 | 0.00 | 0.00 | 0.00 | 57 | 1013.4 |
| 20260510150049 | 60 | 231 | 1.0 | 2.0 | 0.00 | 0.00 | 0.00 | 58 | 1013.1 |
| 20260510145546 | 60 | 67 | 0.0 | 1.0 | 0.00 | 0.00 | 0.00 | 58 | 1013.1 |
| 20260510145043 | 60 | 82 | 0.0 | 0.0 | 0.00 | 0.00 | 0.00 | 58 | 1013.1 |
| 20260510144539 | 59 | 110 | 1.0 | 1.0 | 0.00 | 0.00 | 0.00 | 57 | 1013.1 |
| 20260510144036 | 59 | 166 | 1.0 | 2.0 | 0.00 | 0.00 | 0.00 | 60 | 1012.8 |
| 20260510143531 | 59 | 135 | 2.0 | 3.0 | 0.00 | 0.00 | 0.00 | 59 | 1013.1 |
| 20260510143028 | 59 | 97 | 3.0 | 5.0 | 0.00 | 0.00 | 0.00 | 59 | 1012.8 |
| 20260510142524 | 58 | 66 | 1.0 | 1.0 | 0.00 | 0.00 | 0.00 | 60 | 1012.8 |
| 20260510142021 | 58 | 41 | 1.0 | 2.0 | 0.00 | 0.00 | 0.00 | 60 | 1012.8 |
| 20260510141518 | 57 | 190 | 2.0 | 2.0 | 0.00 | 0.00 | 0.00 | 61 | 1012.8 |
| 20260510141016 | 57 | 194 | 2.0 | 2.0 | 0.00 | 0.00 | 0.00 | 62 | 1012.8 |
| 20260510140512 | 57 | 58 | 0.0 | 1.0 | 0.00 | 0.00 | 0.00 | 62 | 1012.8 |
| 20260510140011 | 56 | 200 | 1.0 | 2.0 | 0.00 | 0.00 | 0.00 | 61 | 1012.8 |
| 20260510135507 | 57 | 79 | 0.0 | 0.0 | 0.00 | 0.00 | 0.00 | 61 | 1012.8 |
| 20260510135004 | 56 | 58 | 1.0 | 1.0 | 0.00 | 0.00 | 0.00 | 62 | 1012.1 |
| 20260510134501 | 56 | 306 | 1.0 | 1.0 | 0.00 | 0.00 | 0.00 | 61 | 1012.4 |
| 20260510133958 | 56 | 187 | 3.0 | 5.0 | 0.00 | 0.00 | 0.00 | 60 | 1012.4 |
| 20260510133453 | 56 | 249 | 1.0 | 2.0 | 0.00 | 0.00 | 0.00 | 61 | 1012.4 |
| 20260510132949 | 57 | 178 | 1.0 | 1.0 | 0.00 | 0.00 | 0.00 | 61 | 1012.8 |
| 20260510132447 | 57 | 231 | 1.0 | 1.0 | 0.00 | 0.00 | 0.00 | 62 | 1012.1 |
| 20260510131943 | 56 | 81 | 0.0 | 1.0 | 0.00 | 0.00 | 0.00 | 63 | 1012.1 |
| 20260510131441 | 56 | 164 | 2.0 | 3.0 | 0.00 | 0.00 | 0.00 | 63 | 1012.1 |
| 20260510130938 | 56 | 80 | 0.0 | 0.0 | 0.00 | 0.00 | 0.00 | 67 | 1012.1 |
| 20260510130435 | 55 | 73 | 0.0 | 1.0 | 0.00 | 0.00 | 0.00 | 68 | 1012.1 |
| 20260510125932 | 54 | 94 | 1.0 | 1.0 | 0.00 | 0.00 | 0.00 | 67 | 1012.4 |
| 20260510125427 | 54 | 73 | 0.0 | 1.0 | 0.00 | 0.00 | 0.00 | 69 | 1012.1 |
| 20260510124925 | 54 | 76 | 0.0 | 0.0 | 0.00 | 0.00 | 0.00 | 68 | 1012.1 |
| 20260510124421 | 54 | 76 | 0.0 | 0.0 | 0.00 | 0.00 | 0.00 | 70 | 1012.1 |
| 20260510123918 | 54 | 76 | 0.0 | 0.0 | 0.00 | 0.00 | 0.00 | 69 | 1012.1 |
| 20260510123413 | 54 | 24 | 1.0 | 2.0 | 0.00 | 0.00 | 0.00 | 70 | 1012.1 |
| 20260510122910 | 54 | 84 | 0.0 | 1.0 | 0.00 | 0.00 | 0.00 | 70 | 1011.8 |
| 20260510122405 | 54 | 142 | 1.0 | 2.0 | 0.00 | 0.00 | 0.00 | 71 | 1011.8 |
| 20260510121901 | 53 | 79 | 0.0 | 0.0 | 0.00 | 0.00 | 0.00 | 72 | 1011.4 |
| 20260510121359 | 53 | 79 | 0.0 | 0.0 | 0.00 | 0.00 | 0.00 | 71 | 1011.1 |
| 20260510120856 | 53 | 78 | 0.0 | 0.0 | 0.00 | 0.00 | 0.00 | 72 | 1011.4 |
| 20260510120354 | 53 | 77 | 0.0 | 0.0 | 0.00 | 0.00 | 0.00 | 73 | 1011.4 |
| 20260510115849 | 53 | 72 | 0.0 | 0.0 | 0.00 | 0.00 | 0.00 | 73 | 1011.4 |
| 20260510115346 | 53 | 58 | 0.0 | 0.0 | 0.00 | 0.00 | 0.00 | 72 | 1011.4 |
| 20260510114841 | 53 | 81 | 0.0 | 0.0 | 0.00 | 0.00 | 0.00 | 73 | 1011.4 |
| 20260510114339 | 53 | 64 | 0.0 | 0.0 | 0.00 | 0.00 | 0.00 | 73 | 1011.1 |
| 20260510113839 | 53 | 139 | 1.0 | 1.0 | 0.00 | 0.00 | 0.00 | 73 | 1011.1 |
| 20260510113336 | 53 | 122 | 0.0 | 1.0 | 0.00 | 0.00 | 0.00 | 74 | 1010.7 |
| 20260510112832 | 53 | 68 | 0.0 | 0.0 | 0.00 | 0.00 | 0.00 | 77 | 1010.7 |
| 20260510112329 | 53 | 66 | 0.0 | 0.0 | 0.00 | 0.00 | 0.00 | 79 | 1011.1 |
| 20260510111825 | 53 | 76 | 0.0 | 1.0 | 0.00 | 0.00 | 0.00 | 79 | 1010.7 |
| 20260510111322 | 53 | 62 | 0.0 | 0.0 | 0.00 | 0.00 | 0.00 | 78 | 1010.7 |
| 20260510110817 | 53 | 77 | 0.0 | 0.0 | 0.00 | 0.00 | 0.00 | 79 | 1010.7 |
| 20260510110315 | 53 | 70 | 0.0 | 0.0 | 0.00 | 0.00 | 0.00 | 79 | 1010.7 |
| 20260510105809 | 53 | 76 | 0.0 | 0.0 | 0.00 | 0.00 | 0.00 | 79 | 1010.0 |
| 20260510105306 | 54 | 67 | 0.0 | 0.0 | 0.00 | 0.00 | 0.00 | 80 | 1010.0 |
| 20260510104801 | 53 | 78 | 0.0 | 0.0 | 0.00 | 0.00 | 0.00 | 81 | 1010.0 |
| 20260510104259 | 53 | 61 | 0.0 | 1.0 | 0.00 | 0.00 | 0.00 | 82 | 1010.0 |
| 20260510103754 | 53 | 99 | 0.0 | 1.0 | 0.00 | 0.00 | 0.00 | 83 | 1010.0 |
| 20260510103252 | 53 | 69 | 0.0 | 0.0 | 0.00 | 0.00 | 0.00 | 84 | 1010.0 |
| 20260510102751 | 53 | 76 | 0.0 | 0.0 | 0.00 | 0.00 | 0.00 | 84 | 1010.0 |
| 20260510102248 | 53 | 75 | 0.0 | 0.0 | 0.00 | 0.00 | 0.00 | 83 | 1009.6 |
| 20260510101745 | 53 | 74 | 0.0 | 1.0 | 0.00 | 0.00 | 0.00 | 83 | 1010.0 |
| 20260510101244 | 53 | 64 | 0.0 | 0.0 | 0.00 | 0.00 | 0.00 | 83 | 1010.0 |
| 20260510100739 | 54 | 73 | 0.0 | 0.0 | 0.00 | 0.00 | 0.00 | 83 | 1009.6 |
| 20260510100238 | 55 | 76 | 0.0 | 0.0 | 0.00 | 0.00 | 0.00 | 82 | 1009.6 |
| 20260510095733 | 55 | 79 | 0.0 | 0.0 | 0.00 | 0.00 | 0.00 | 80 | 1009.3 |
| 20260510095228 | 55 | 66 | 0.0 | 0.0 | 0.00 | 0.00 | 0.00 | 79 | 1009.3 |
| 20260510094727 | 55 | 68 | 0.0 | 0.0 | 0.00 | 0.00 | 0.00 | 78 | 1008.9 |
| 20260510094223 | 55 | 69 | 0.0 | 0.0 | 0.00 | 0.00 | 0.00 | 78 | 1008.9 |
| 20260510093719 | 55 | 70 | 0.0 | 0.0 | 0.00 | 0.00 | 0.00 | 78 | 1008.9 |
| 20260510093217 | 55 | 72 | 0.0 | 0.0 | 0.00 | 0.00 | 0.00 | 81 | 1008.9 |
| 20260510092713 | 55 | 65 | 0.0 | 0.0 | 0.00 | 0.00 | 0.00 | 81 | 1008.6 |
| 20260510092209 | 55 | 61 | 0.0 | 0.0 | 0.00 | 0.00 | 0.00 | 82 | 1008.9 |
| 20260510091704 | 55 | 75 | 0.0 | 0.0 | 0.00 | 0.00 | 0.00 | 81 | 1008.9 |
| 20260510091200 | 56 | 75 | 0.0 | 0.0 | 0.00 | 0.00 | 0.00 | 80 | 1008.6 |
| 20260510090657 | 56 | 116 | 1.0 | 1.0 | 0.00 | 0.00 | 0.00 | 79 | 1008.6 |
| 20260510090154 | 57 | 65 | 0.0 | 1.0 | 0.00 | 0.00 | 0.00 | 77 | 1008.3 |
| 20260510085649 | 57 | 74 | 0.0 | 1.0 | 0.00 | 0.00 | 0.00 | 76 | 1008.3 |
| 20260510085144 | 57 | 164 | 1.0 | 1.0 | 0.00 | 0.00 | 0.00 | 75 | 1008.3 |
| 20260510084641 | 57 | 175 | 2.0 | 2.0 | 0.00 | 0.00 | 0.00 | 75 | 1007.9 |
| 20260510084137 | 57 | 108 | 1.0 | 1.0 | 0.00 | 0.00 | 0.00 | 74 | 1007.9 |
| 20260510083634 | 57 | 61 | 1.0 | 1.0 | 0.00 | 0.00 | 0.00 | 74 | 1007.6 |
| 20260510083131 | 57 | 85 | 0.0 | 1.0 | 0.00 | 0.00 | 0.00 | 75 | 1007.6 |
| 20260510082627 | 57 | 68 | 0.0 | 0.0 | 0.00 | 0.00 | 0.00 | 75 | 1007.6 |
| 20260510082123 | 57 | 77 | 0.0 | 0.0 | 0.00 | 0.00 | 0.00 | 75 | 1007.3 |
| 20260510081623 | 58 | 83 | 0.0 | 0.0 | 0.00 | 0.00 | 0.00 | 76 | 1007.3 |
| 20260510081119 | 58 | 82 | 0.0 | 1.0 | 0.00 | 0.00 | 0.00 | 76 | 1007.6 |
| 20260510080613 | 57 | 88 | 0.0 | 0.0 | 0.00 | 0.00 | 0.00 | 79 | 1007.6 |
| 20260510080110 | 58 | 84 | 0.0 | 1.0 | 0.00 | 0.00 | 0.00 | 81 | 1007.6 |
| 20260510075602 | 58 | 76 | 0.0 | 0.0 | 0.00 | 0.00 | 0.00 | 82 | 1007.3 |
| 20260510075059 | 58 | 67 | 0.0 | 0.0 | 0.00 | 0.00 | 0.00 | 83 | 1007.3 |
| 20260510074556 | 59 | 87 | 1.0 | 1.0 | 0.00 | 0.00 | 0.00 | 83 | 1007.3 |
| 20260510074051 | 59 | 84 | 0.0 | 0.0 | 0.00 | 0.00 | 0.00 | 82 | 1007.3 |
| 20260510073548 | 59 | 85 | 0.0 | 1.0 | 0.00 | 0.00 | 0.00 | 82 | 1007.3 |
| 20260510073045 | 59 | 66 | 0.0 | 1.0 | 0.00 | 0.00 | 0.00 | 82 | 1007.3 |
| 20260510072542 | 59 | 127 | 0.0 | 1.0 | 0.00 | 0.00 | 0.00 | 82 | 1007.6 |
| 20260510072037 | 59 | 68 | 0.0 | 0.0 | 0.00 | 0.00 | 0.00 | 81 | 1007.3 |
| 20260510071533 | 59 | 64 | 1.0 | 1.0 | 0.00 | 0.00 | 0.00 | 80 | 1007.6 |
| 20260510071032 | 59 | 74 | 0.0 | 0.0 | 0.00 | 0.00 | 0.00 | 80 | 1007.3 |
| 20260510070528 | 59 | 127 | 1.0 | 1.0 | 0.00 | 0.00 | 0.00 | 79 | 1007.3 |
| 20260510070025 | 59 | 136 | 1.0 | 1.0 | 0.00 | 0.00 | 0.00 | 79 | 1007.3 |
| 20260510065521 | 60 | 149 | 1.0 | 2.0 | 0.00 | 0.00 | 0.00 | 79 | 1007.3 |
| 20260510065017 | 60 | 93 | 1.0 | 1.0 | 0.00 | 0.00 | 0.00 | 78 | 1007.3 |
| 20260510064515 | 60 | 7 | 1.0 | 1.0 | 0.00 | 0.00 | 0.00 | 78 | 1007.3 |
| 20260510064011 | 60 | 68 | 0.0 | 0.0 | 0.00 | 0.00 | 0.00 | 77 | 1007.3 |
| 20260510063508 | 60 | 73 | 0.0 | 0.0 | 0.00 | 0.00 | 0.00 | 77 | 1006.9 |
| 20260510063006 | 60 | 61 | 1.0 | 1.0 | 0.00 | 0.00 | 0.00 | 76 | 1007.3 |
| 20260510062501 | 60 | 64 | 0.0 | 1.0 | 0.00 | 0.00 | 0.00 | 77 | 1007.3 |
| 20260510061956 | 60 | 248 | 1.0 | 1.0 | 0.00 | 0.00 | 0.00 | 77 | 1007.3 |
| 20260510061453 | 60 | 68 | 0.0 | 1.0 | 0.00 | 0.00 | 0.00 | 78 | 1006.9 |
| 20260510060949 | 61 | 60 | 1.0 | 2.0 | 0.00 | 0.00 | 0.00 | 77 | 1007.3 |
| 20260510060446 | 61 | 99 | 2.0 | 3.0 | 0.00 | 0.00 | 0.00 | 78 | 1007.3 |
| 20260510055942 | 61 | 79 | 1.0 | 2.0 | 0.00 | 0.00 | 0.00 | 78 | 1007.3 |
| 20260510055438 | 61 | 44 | 1.0 | 1.0 | 0.00 | 0.00 | 0.00 | 78 | 1007.3 |
| 20260510054937 | 62 | 69 | 1.0 | 2.0 | 0.00 | 0.00 | 0.00 | 78 | 1007.3 |
| 20260510054432 | 62 | 40 | 2.0 | 2.0 | 0.00 | 0.00 | 0.00 | 78 | 1007.3 |
| 20260510053927 | 62 | 150 | 3.0 | 6.0 | 0.00 | 0.00 | 0.00 | 78 | 1007.6 |
| 20260510053422 | 62 | 68 | 0.0 | 1.0 | 0.00 | 0.00 | 0.00 | 79 | 1007.6 |
| 20260510052919 | 62 | 101 | 3.0 | 6.0 | 0.00 | 0.00 | 0.00 | 80 | 1007.3 |
| 20260510052415 | 61 | 49 | 3.0 | 3.0 | 0.00 | 0.00 | 0.00 | 80 | 1007.3 |
| 20260510051911 | 61 | 64 | 0.0 | 0.0 | 0.00 | 0.00 | 0.00 | 81 | 1007.6 |
| 20260510051408 | 60 | 68 | 0.0 | 1.0 | 0.00 | 0.00 | 0.00 | 83 | 1007.3 |
| 20260510050904 | 60 | 65 | 0.0 | 1.0 | 0.00 | 0.00 | 0.00 | 84 | 1006.9 |
| 20260510050401 | 59 | 64 | 0.0 | 0.0 | 0.00 | 0.00 | 0.00 | 85 | 1006.9 |
| 20260510045858 | 59 | 69 | 0.0 | 0.0 | 0.00 | 0.00 | 0.00 | 86 | 1006.9 |
| 20260510045355 | 59 | 37 | 0.0 | 0.0 | 0.00 | 0.00 | 0.00 | 86 | 1006.6 |
| 20260510044852 | 60 | 68 | 0.0 | 0.0 | 0.00 | 0.00 | 0.00 | 86 | 1006.9 |
| 20260510044349 | 60 | 60 | 0.0 | 0.0 | 0.00 | 0.00 | 0.00 | 85 | 1006.6 |
| 20260510043845 | 60 | 62 | 0.0 | 1.0 | 0.00 | 0.00 | 0.00 | 84 | 1006.6 |
| 20260510043341 | 61 | 64 | 0.0 | 0.0 | 0.00 | 0.00 | 0.00 | 82 | 1006.6 |
| 20260510042839 | 61 | 64 | 0.0 | 0.0 | 0.00 | 0.00 | 0.00 | 80 | 1006.6 |
| 20260510042335 | 61 | 63 | 1.0 | 2.0 | 0.00 | 0.00 | 0.00 | 78 | 1006.6 |
| 20260510041831 | 61 | 64 | 0.0 | 0.0 | 0.00 | 0.00 | 0.00 | 78 | 1006.6 |
| 20260510041329 | 61 | 50 | 0.0 | 1.0 | 0.00 | 0.00 | 0.00 | 79 | 1006.1 |
| 20260510040826 | 61 | 73 | 0.0 | 0.0 | 0.00 | 0.00 | 0.00 | 78 | 1006.1 |
| 20260510040323 | 61 | 69 | 0.0 | 0.0 | 0.00 | 0.00 | 0.00 | 78 | 1006.1 |
| 20260510035818 | 61 | 69 | 0.0 | 0.0 | 0.00 | 0.14 | 0.14 | 78 | 1006.1 |
| 20260510035314 | 61 | 67 | 0.0 | 0.0 | 0.00 | 0.14 | 0.14 | 77 | 1006.1 |
| 20260510034810 | 62 | 50 | 0.0 | 1.0 | 0.00 | 0.14 | 0.14 | 76 | 1006.1 |
| 20260510034308 | 62 | 60 | 1.0 | 1.0 | 0.00 | 0.14 | 0.14 | 76 | 1005.8 |
| 20260510033804 | 62 | 67 | 0.0 | 0.0 | 0.00 | 0.14 | 0.14 | 76 | 1006.1 |
| 20260510033301 | 62 | 54 | 0.0 | 1.0 | 0.00 | 0.14 | 0.14 | 75 | 1005.8 |
| 20260510032758 | 62 | 66 | 0.0 | 0.0 | 0.00 | 0.14 | 0.14 | 75 | 1005.8 |
| 20260510032254 | 62 | 64 | 0.0 | 0.0 | 0.00 | 0.14 | 0.14 | 75 | 1005.5 |
| 20260510031750 | 62 | 38 | 0.0 | 0.0 | 0.00 | 0.14 | 0.14 | 75 | 1005.8 |
| 20260510031245 | 62 | 63 | 0.0 | 1.0 | 0.00 | 0.14 | 0.14 | 75 | 1005.8 |
| 20260510030745 | 63 | 65 | 0.0 | 0.0 | 0.00 | 0.14 | 0.14 | 74 | 1005.8 |
| 20260510030242 | 63 | 65 | 0.0 | 0.0 | 0.00 | 0.14 | 0.14 | 74 | 1005.5 |
| 20260510025739 | 63 | 54 | 0.0 | 1.0 | 0.00 | 0.14 | 0.14 | 73 | 1005.5 |
| 20260510025237 | 63 | 59 | 0.0 | 1.0 | 0.00 | 0.14 | 0.14 | 73 | 1005.8 |
| 20260510024734 | 63 | 66 | 0.0 | 0.0 | 0.00 | 0.14 | 0.14 | 73 | 1005.8 |
| 20260510024230 | 63 | 56 | 1.0 | 2.0 | 0.00 | 0.14 | 0.14 | 72 | 1005.5 |
| 20260510023726 | 64 | 74 | 0.0 | 0.0 | 0.00 | 0.14 | 0.14 | 72 | 1005.8 |
| 20260510023223 | 64 | 55 | 2.0 | 2.0 | 0.00 | 0.14 | 0.14 | 72 | 1005.8 |
| 20260510022719 | 64 | 44 | 0.0 | 1.0 | 0.00 | 0.14 | 0.14 | 71 | 1005.5 |
| 20260510022219 | 64 | 66 | 0.0 | 1.0 | 0.00 | 0.14 | 0.14 | 71 | 1005.8 |
| 20260510021714 | 64 | 48 | 1.0 | 2.0 | 0.00 | 0.14 | 0.14 | 71 | 1005.5 |
| 20260510021212 | 64 | 59 | 0.0 | 1.0 | 0.00 | 0.14 | 0.14 | 71 | 1005.5 |
| 20260510020707 | 64 | 70 | 0.0 | 0.0 | 0.00 | 0.14 | 0.14 | 71 | 1005.5 |
| 20260510020202 | 64 | 64 | 1.0 | 1.0 | 0.00 | 0.14 | 0.14 | 70 | 1005.5 |
| 20260510015658 | 64 | 49 | 1.0 | 3.0 | 0.00 | 0.14 | 0.14 | 70 | 1005.1 |
| 20260510015155 | 64 | 60 | 0.0 | 0.0 | 0.00 | 0.14 | 0.14 | 70 | 1005.1 |
| 20260510014655 | 64 | 58 | 1.0 | 1.0 | 0.00 | 0.14 | 0.14 | 70 | 1005.1 |
| 20260510014154 | 65 | 31 | 1.0 | 1.0 | 0.00 | 0.14 | 0.14 | 70 | 1005.1 |
| 20260510013654 | 65 | 71 | 0.0 | 0.0 | 0.00 | 0.14 | 0.14 | 69 | 1004.8 |
| 20260510013150 | 65 | 63 | 1.0 | 1.0 | 0.00 | 0.14 | 0.14 | 68 | 1004.8 |
| 20260510012649 | 65 | 55 | 0.0 | 0.0 | 0.00 | 0.14 | 0.14 | 68 | 1004.8 |
| 20260510012145 | 66 | 66 | 0.0 | 0.0 | 0.00 | 0.14 | 0.14 | 67 | 1004.8 |
| 20260510011640 | 66 | 61 | 1.0 | 1.0 | 0.00 | 0.14 | 0.14 | 67 | 1004.8 |
| 20260510011136 | 66 | 64 | 1.0 | 2.0 | 0.00 | 0.14 | 0.14 | 66 | 1004.4 |
| 20260510010632 | 66 | 69 | 1.0 | 1.0 | 0.00 | 0.14 | 0.14 | 66 | 1004.4 |
| 20260510010130 | 67 | 60 | 0.0 | 0.0 | 0.00 | 0.14 | 0.14 | 65 | 1004.4 |
| 20260510005625 | 67 | 80 | 1.0 | 1.0 | 0.00 | 0.14 | 0.14 | 64 | 1004.4 |
| 20260510005123 | 67 | 73 | 3.0 | 5.0 | 0.00 | 0.14 | 0.14 | 63 | 1004.4 |
| 20260510004621 | 68 | 48 | 0.0 | 1.0 | 0.00 | 0.14 | 0.14 | 63 | 1004.4 |
| 20260510004119 | 68 | 63 | 1.0 | 2.0 | 0.00 | 0.14 | 0.14 | 62 | 1004.4 |
| 20260510003615 | 68 | 55 | 1.0 | 2.0 | 0.00 | 0.14 | 0.14 | 62 | 1004.4 |
| 20260510003111 | 68 | 93 | 1.0 | 2.0 | 0.00 | 0.14 | 0.14 | 62 | 1004.4 |
| 20260510002606 | 68 | 62 | 1.0 | 1.0 | 0.00 | 0.14 | 0.14 | 61 | 1004.1 |
| 20260510002103 | 68 | 60 | 1.0 | 1.0 | 0.00 | 0.14 | 0.14 | 61 | 1004.4 |
| 20260510001600 | 69 | 66 | 1.0 | 1.0 | 0.00 | 0.14 | 0.14 | 61 | 1004.1 |
| 20260510001059 | 69 | 53 | 2.0 | 2.0 | 0.00 | 0.14 | 0.14 | 60 | 1003.8 |
| 20260510000553 | 69 | 84 | 1.0 | 2.0 | 0.00 | 0.14 | 0.14 | 60 | 1003.8 |
| 20260510000050 | 69 | 49 | 1.0 | 1.0 | 0.00 | 0.14 | 0.14 | 59 | 1003.8 |
| 20260509235547 | 70 | 77 | 1.0 | 1.0 | 0.00 | 0.14 | 0.14 | 59 | 1003.8 |
| 20260509235044 | 70 | 75 | 1.0 | 1.0 | 0.00 | 0.14 | 0.14 | 59 | 1003.8 |
| 20260509234540 | 70 | 72 | 1.0 | 1.0 | 0.00 | 0.14 | 0.14 | 59 | 1003.8 |
| 20260509234038 | 70 | 64 | 3.0 | 5.0 | 0.00 | 0.14 | 0.14 | 58 | 1003.8 |
| 20260509233535 | 71 | 53 | 1.0 | 2.0 | 0.00 | 0.14 | 0.14 | 57 | 1003.8 |
| 20260509233032 | 71 | 17 | 1.0 | 3.0 | 0.00 | 0.14 | 0.14 | 57 | 1003.8 |
| 20260509232529 | 71 | 58 | 1.0 | 1.0 | 0.00 | 0.14 | 0.14 | 57 | 1003.8 |
| 20260509232026 | 71 | 322 | 2.0 | 8.0 | 0.00 | 0.14 | 0.14 | 57 | 1003.8 |
| 20260509231522 | 71 | 46 | 2.0 | 5.0 | 0.00 | 0.14 | 0.14 | 56 | 1003.8 |
| 20260509231020 | 71 | 99 | 3.0 | 5.0 | 0.00 | 0.14 | 0.14 | 57 | 1003.8 |
| 20260509230517 | 71 | 105 | 2.0 | 3.0 | 0.00 | 0.14 | 0.14 | 58 | 1003.8 |
| 20260509230014 | 71 | 65 | 1.0 | 2.0 | 0.00 | 0.14 | 0.14 | 59 | 1003.4 |